Regional Weather Roundup
Issued by NWS Glasgow, MT

Home | Current Version | Previous Version | Text Only | Print | Product List | Glossary On
Versions: 1 2 3 4 5 6 7 8 9 10 11 12 13 14 15 16 17 18 19 20 21 22 23 24 25 26 27 28 29 30 31 32 33 34 35 36 37 38 39 40 41 42 43 44 45 46 47 48 49 50
000
ASUS45 KGGW 301015
RWRGGW
HOURLY REGIONAL WEATHER ROUNDUP FOR NORTHEAST MONTANA
NATIONAL WEATHER SERVICE GLASGOW MONTANA
400 AM MDT FRI SEP 30 2016

NOTE: "FAIR" INDICATES FEW OR NO CLOUDS BELOW 12,000 FEET WITH NO
SIGNIFICANT WEATHER AND/OR OBSTRUCTIONS TO VISISBILITY.

NORTHEAST MONTANA


CITY           SKY/WX    TMP DP  RH WIND       PRES   REMARKS
GLASGOW        CLOUDY    54  46  74 E13       29.94F
PLENTYWOOD       N/A     54  43  66 E5          N/A
WOLF POINT     CLOUDY    59  46  62 NE9       29.97F
JORDAN           N/A     53  49  86 W3        29.96F
WINNETT          N/A     49  45  86 SW3         N/A
SIDNEY         CLOUDY    58  49  72 SW3       30.02S
GLENDIVE       PTCLDY    57  47  69 NE8       30.00F
MALTA            N/A     54  50  86 E1          N/A
SCOBEY           N/A     54  39  57 E6        29.99F
OPHEIM           N/A     52  43  71 SE7       29.75F

FORT PECK REPORTS


CITY           SKY/WX    TMP DP  RH WIND       PRES   REMARKS
FORT PECK        N/A     57  47  69 E14         N/A
THE PINES        N/A     58  52  80 CALM        N/A

SOUTHEAST MONTANA


CITY           SKY/WX    TMP DP  RH WIND       PRES   REMARKS
BILLINGS       CLOUDY    65  50  58 SW14      30.02F
MILES CITY     CLOUDY    60  50  69 S3        29.96F
BAKER          CLOUDY    60  46  59 E5        30.04F
LIVINGSTON     CLEAR     63  43  48 SW12G20   30.09F

CENTRAL MONTANA


CITY           SKY/WX    TMP DP  RH WIND       PRES   REMARKS
HAVRE          CLEAR     47  46  97 SW9       29.98S
LEWISTOWN      CLEAR     50  44  80 S3        30.03F
GREAT FALLS    CLEAR     49  45  86 S3        30.02F
CUT BANK       CLEAR     41  40  96 N6        30.01F
HELENA         CLOUDY    56  43  61 CALM      30.06F
BUTTE          CLEAR     44  42  93 SE6       30.16F
BOZEMAN        CLEAR     48  43  82 CALM      30.11S

WESTERN MONTANA


CITY           SKY/WX    TMP DP  RH WIND       PRES   REMARKS
MISSOULA       CLEAR     50  43  77 W3        30.03R
KALISPELL      NOT AVBL

NORTH DAKOTA


CITY           SKY/WX    TMP DP  RH WIND       PRES   REMARKS
WILLISTON      CLOUDY    60  44  55 SE5       30.04F
DICKINSON      CLOUDY    55  43  63 SE22G29   30.06F
MINOT          CLOUDY    51  47  86 SE12      30.15F
BISMARCK       CLOUDY    52  46  80 SE9       30.18F

SOUTHERN SASKATCHEWAN


CITY           SKY/WX    TMP DP  RH WIND       PRES   REMARKS
REGINA         PTCLDY    50  45  81 SE14      30.04F
MOOSE JAW      PTCLDY    48  45  87 SE8       30.01
ESTEVAN        PTCLDY    48  45  87 E14       30.08F
SWIFT CURRENT  CLEAR     50  46  87 S9        29.97S




USA.gov is the U.S. government's official web portal to all federal, state and local government web resources and services.